Weather History for KVVV - October, 2012

Change the Weather History Date:

Tuesday, October 9, 2012

  Actual Average (KAQP) Record (KAQP)
Temperature  
Mean Temperature 44 °F -  
Max Temperature 48 °F 59 °F 84 °F (1999)
Min Temperature 39 °F 36 °F 21 °F (2002)
Degree Days  
Heating Degree Days 22    
Moisture  
Dew Point 26 °F    
Average Humidity 51    
Maximum Humidity 66    
Minimum Humidity 39    
Precipitation  
Precipitation 0.00 in - - ()
Sea Level Pressure  
Sea Level Pressure 29.88 in    
Wind  
Wind Speed 12 mph (WNW)    
Max Wind Speed 24 mph    
Max Gust Speed 33 mph    
Visibility 10 miles    
Events      
Averages and records for this station are not official NWS values.
T = Trace of Precipitation, MM = Missing Value Source: NWS Daily Summary

Daily Weather History Graph

Daily Weather History Graph

Search for Another Location

Airport or City:

Trip Planner

Search our weather history database for the weather conditions in past years. The results will help you decide how hot, cold, wet, or windy it might be!

Date:

Astronomy

Oct. 09, 2012 Rise Set
Actual Time 7:34 AM CDT 6:50 PM CDT
Civil Twilight 7:05 AM CDT 7:19 PM CDT
Nautical Twilight 6:30 AM CDT 7:53 PM CDT
Astronomical Twilight 5:56 AM CDT 8:28 PM CDT
Moon 12:55 AM CDT (10/9) 3:33 PM CDT (10/9)
Length of Visible Light 12h 14m
Length of Day
11h 15m
Last Quarter, 36% of the Moon is Illuminated
Oct 9
Last Quarter
Oct 15
New
Oct 21
First Quarter
Oct 29
Full
Nov 6
Last Quarter

Hourly Weather History & Observations

Time (CDT) Temp. Windchill Dew Point Humidity Pressure Visibility Wind Dir Wind Speed Gust Speed Precip Events Conditions
12:01 AM 46.4 °F 43.5 °F 33.8 °F 62% 29.74 in 10.0 mi WSW 5.8 mph - N/A   Clear
12:21 AM 46.4 °F 42.9 °F 35.6 °F 66% 29.74 in 10.0 mi West 6.9 mph - N/A   Clear
12:41 AM 48.2 °F - 35.6 °F 62% 29.74 in 10.0 mi WNW 10.4 mph - N/A   Clear
1:01 AM 46.4 °F 41.9 °F 35.6 °F 66% 29.74 in 10.0 mi WNW 9.2 mph - N/A   Scattered Clouds
1:21 AM 46.4 °F 41.9 °F 33.8 °F 62% 29.74 in 10.0 mi WNW 9.2 mph - N/A   Scattered Clouds
1:41 AM 46.4 °F 43.5 °F 33.8 °F 62% 29.75 in 10.0 mi West 5.8 mph - N/A   Mostly Cloudy
1:55 AM 46.4 °F 42.9 °F 33.8 °F 62% 29.75 in 10.0 mi WNW 6.9 mph - N/A   Overcast
3:01 AM 46.4 °F 45.2 °F 33.8 °F 62% 29.74 in 10.0 mi NW 3.5 mph - N/A   Overcast
3:03 AM 46.4 °F 44.3 °F 32.0 °F 57% 29.74 in 10.0 mi NNW 4.6 mph - N/A   Light Drizzle
3:41 AM 46.4 °F 42.9 °F 32.0 °F 57% 29.75 in 10.0 mi WNW 6.9 mph - N/A   Overcast
4:01 AM 46.4 °F 41.5 °F 30.2 °F 53% 29.75 in 10.0 mi WNW 10.4 mph - N/A   Overcast
4:21 AM 46.4 °F 42.4 °F 28.4 °F 50% 29.76 in 10.0 mi WNW 8.1 mph - N/A   Overcast
4:41 AM 46.4 °F 42.4 °F 28.4 °F 50% 29.76 in 10.0 mi West 8.1 mph - N/A   Overcast
5:01 AM 46.4 °F 42.4 °F 28.4 °F 50% 29.77 in 10.0 mi West 8.1 mph - N/A   Overcast
5:19 AM 46.4 °F 40.1 °F 28.4 °F 50% 29.77 in 10.0 mi WNW 15.0 mph - N/A   Overcast
5:21 AM 46.4 °F 40.7 °F 28.4 °F 50% 29.78 in 10.0 mi WNW 12.7 mph - N/A   Overcast
6:01 AM 44.6 °F 37.4 °F 26.6 °F 49% 29.78 in 10.0 mi WNW 16.1 mph 19.6 mph N/A   Scattered Clouds
6:21 AM 44.6 °F 38.4 °F 24.8 °F 46% 29.78 in 10.0 mi West 12.7 mph 20.7 mph N/A   Clear
6:32 AM 44.6 °F 39.2 °F 24.8 °F 46% 29.79 in 10.0 mi WNW 10.4 mph 16.1 mph N/A   Scattered Clouds
6:53 AM 44.6 °F 38.8 °F 24.8 °F 46% 29.79 in 10.0 mi WNW 11.5 mph - N/A   Scattered Clouds
7:01 AM 44.6 °F 39.7 °F 24.8 °F 46% 29.79 in 10.0 mi West 9.2 mph - N/A   Mostly Cloudy
7:10 AM 42.8 °F 36.6 °F 24.8 °F 49% 29.79 in 10.0 mi WNW 11.5 mph - N/A   Mostly Cloudy
7:21 AM 42.8 °F 38.0 °F 24.8 °F 49% 29.80 in 10.0 mi West 8.1 mph - N/A   Mostly Cloudy
8:01 AM 42.8 °F 37.5 °F 26.6 °F 53% 29.80 in 10.0 mi West 9.2 mph - N/A   Clear
8:21 AM 41.0 °F 34.3 °F 26.6 °F 57% 29.80 in 10.0 mi West 11.5 mph 18.4 mph N/A   Clear
8:41 AM 42.8 °F 35.1 °F 26.6 °F 53% 29.81 in 10.0 mi WNW 16.1 mph 23.0 mph N/A   Clear
8:49 AM 42.8 °F 34.8 °F 26.6 °F 53% 29.81 in 10.0 mi West 17.3 mph 23.0 mph N/A   Clear
9:01 AM 42.8 °F 35.8 °F 24.8 °F 49% 29.81 in 10.0 mi West 13.8 mph 21.9 mph N/A   Clear
9:21 AM 42.8 °F 34.5 °F 24.8 °F 49% 29.81 in 10.0 mi West 18.4 mph 25.3 mph N/A   Mostly Cloudy
9:41 AM 42.8 °F 34.5 °F 24.8 °F 49% 29.81 in 10.0 mi WNW 18.4 mph 28.8 mph N/A   Overcast
10:01 AM 42.8 °F 34.3 °F 24.8 °F 49% 29.81 in 10.0 mi WNW 19.6 mph 28.8 mph N/A   Overcast
10:03 AM 42.8 °F 34.5 °F 24.8 °F 49% 29.81 in 10.0 mi WNW 18.4 mph 28.8 mph N/A   Overcast
10:21 AM 42.8 °F 34.0 °F 26.6 °F 53% 29.82 in 10.0 mi WNW 20.7 mph 28.8 mph N/A   Overcast
10:47 AM 42.8 °F 33.8 °F 26.6 °F 53% 29.82 in 10.0 mi WNW 21.9 mph 26.5 mph N/A   Overcast
11:01 AM 44.6 °F 36.9 °F 26.6 °F 49% 29.83 in 10.0 mi West 18.4 mph 24.2 mph N/A   Overcast
11:21 AM 42.8 °F 34.5 °F 28.4 °F 57% 29.84 in 10.0 mi West 18.4 mph 28.8 mph N/A   Overcast
11:24 AM 42.8 °F 34.0 °F 28.4 °F 57% 29.84 in 10.0 mi WNW 20.7 mph 27.6 mph N/A   Overcast
11:40 AM 42.8 °F 34.3 °F 30.2 °F 61% 29.84 in 10.0 mi WNW 19.6 mph 25.3 mph N/A   Drizzle
11:52 AM 44.6 °F 36.6 °F 30.2 °F 57% 29.85 in 10.0 mi NW 19.6 mph 25.3 mph N/A   Overcast
12:01 PM 44.6 °F 37.2 °F 28.4 °F 53% 29.85 in 10.0 mi WNW 17.3 mph 26.5 mph N/A   Overcast
12:06 PM 44.6 °F 36.9 °F 28.4 °F 53% 29.85 in 10.0 mi NW 18.4 mph 27.6 mph N/A   Overcast
12:21 PM 44.6 °F 36.6 °F 28.4 °F 53% 29.86 in 10.0 mi NW 19.6 mph 26.5 mph N/A   Overcast
12:36 PM 44.6 °F 37.4 °F 28.4 °F 53% 29.86 in 10.0 mi NW 16.1 mph 26.5 mph N/A   Mostly Cloudy
1:08 PM 44.6 °F 37.2 °F 30.2 °F 57% 29.88 in 10.0 mi NW 17.3 mph 26.5 mph N/A   Overcast
1:23 PM 42.8 °F 34.5 °F 28.4 °F 57% 29.89 in 10.0 mi NNW 18.4 mph 26.5 mph N/A   Overcast
1:41 PM 42.8 °F 34.3 °F 28.4 °F 57% 29.89 in 10.0 mi NW 19.6 mph 33.4 mph N/A   Overcast
1:57 PM 42.8 °F 35.1 °F 28.4 °F 57% 29.90 in 10.0 mi NNW 16.1 mph 26.5 mph N/A   Overcast
2:21 PM 42.8 °F 34.3 °F 26.6 °F 53% 29.90 in 10.0 mi NW 19.6 mph 27.6 mph N/A   Overcast
2:41 PM 42.8 °F 33.3 °F 26.6 °F 53% 29.91 in 10.0 mi NW 24.2 mph 29.9 mph N/A   Overcast
3:01 PM 42.8 °F 34.3 °F 26.6 °F 53% 29.92 in 10.0 mi NW 19.6 mph 27.6 mph N/A   Overcast
3:21 PM 42.8 °F 33.5 °F 26.6 °F 53% 29.93 in 10.0 mi NW 23.0 mph 26.5 mph N/A   Overcast
3:28 PM 42.8 °F 34.3 °F 24.8 °F 49% 29.94 in 10.0 mi NNW 19.6 mph 26.5 mph N/A   Overcast
3:29 PM 42.8 °F 34.0 °F 24.8 °F 49% 29.94 in 10.0 mi NNW 20.7 mph 26.5 mph N/A   Overcast
3:47 PM 42.8 °F 34.0 °F 23.0 °F 46% 29.94 in 10.0 mi NW 20.7 mph 29.9 mph N/A   Overcast
4:14 PM 42.8 °F 36.2 °F 24.8 °F 49% 29.95 in 10.0 mi NW 12.7 mph 25.3 mph N/A   Overcast
4:39 PM 42.8 °F 34.5 °F 21.2 °F 42% 29.95 in 10.0 mi NNW 18.4 mph 31.1 mph N/A   Overcast
5:03 PM 42.8 °F 34.5 °F 21.2 °F 42% 29.96 in 10.0 mi NNW 18.4 mph 28.8 mph N/A   Overcast
5:05 PM 42.8 °F 34.5 °F 21.2 °F 42% 29.96 in 10.0 mi NNW 18.4 mph 28.8 mph N/A   Overcast
6:01 PM 42.8 °F 35.4 °F 19.4 °F 39% 29.98 in 10.0 mi NW 15.0 mph 26.5 mph N/A   Overcast
6:21 PM 42.8 °F 35.1 °F 19.4 °F 39% 29.98 in 10.0 mi NW 16.1 mph 23.0 mph N/A   Overcast
6:41 PM 42.8 °F 36.2 °F 19.4 °F 39% 29.99 in 10.0 mi NW 12.7 mph 17.3 mph N/A   Overcast
6:59 PM 42.8 °F 37.0 °F 19.4 °F 39% 30.00 in 10.0 mi NNW 10.4 mph - N/A   Overcast
7:01 PM 42.8 °F 37.5 °F 19.4 °F 39% 30.00 in 10.0 mi NW 9.2 mph - N/A   Overcast
7:21 PM 42.8 °F 37.5 °F 19.4 °F 39% 30.00 in 10.0 mi NW 9.2 mph - N/A   Overcast
7:45 PM 42.8 °F 36.6 °F 21.2 °F 42% 30.00 in 10.0 mi NW 11.5 mph 16.1 mph N/A   Overcast
8:02 PM 42.8 °F 36.6 °F 21.2 °F 42% 30.01 in 10.0 mi NW 11.5 mph 17.3 mph N/A   Overcast
8:21 PM 42.8 °F 37.5 °F 23.0 °F 46% 30.01 in 10.0 mi NW 9.2 mph - N/A   Overcast
8:41 PM 42.8 °F 37.5 °F 23.0 °F 46% 30.01 in 10.0 mi NW 9.2 mph - N/A   Overcast
8:51 PM 42.8 °F 36.6 °F 23.0 °F 46% 30.01 in 10.0 mi NW 11.5 mph - N/A   Overcast
9:01 PM 42.8 °F 37.0 °F 23.0 °F 46% 30.01 in 10.0 mi WNW 10.4 mph - N/A   Overcast
9:21 PM 42.8 °F 38.0 °F 24.8 °F 49% 30.02 in 10.0 mi WNW 8.1 mph - N/A   Overcast
9:26 PM 42.8 °F 38.0 °F 24.8 °F 49% 30.02 in 10.0 mi NW 8.1 mph - N/A   Overcast
9:41 PM 42.8 °F 38.6 °F 24.8 °F 49% 30.02 in 10.0 mi WNW 6.9 mph - N/A   Overcast
9:51 PM 41.0 °F 36.4 °F 24.8 °F 53% 30.02 in 10.0 mi NW 6.9 mph - N/A   Overcast
10:01 PM 41.0 °F 36.4 °F 24.8 °F 53% 30.03 in 10.0 mi WNW 6.9 mph - N/A   Overcast
10:09 PM 41.0 °F 36.4 °F 24.8 °F 53% 30.03 in 10.0 mi NW 6.9 mph - N/A   Overcast
10:21 PM 41.0 °F 37.1 °F 24.8 °F 53% 30.03 in 10.0 mi NW 5.8 mph - N/A   Overcast
10:55 PM 39.2 °F 34.2 °F 24.8 °F 56% 30.03 in 10.0 mi NW 6.9 mph - N/A   Mostly Cloudy
11:01 PM 39.2 °F 35.0 °F 24.8 °F 56% 30.03 in 10.0 mi WNW 5.8 mph - N/A   Scattered Clouds
11:21 PM 39.2 °F 33.6 °F 24.8 °F 56% 30.04 in 10.0 mi NW 8.1 mph - N/A   Mostly Cloudy
11:29 PM 39.2 °F 33.6 °F 24.8 °F 56% 30.04 in 10.0 mi NW 8.1 mph - N/A   Mostly Cloudy
11:41 PM 39.2 °F 33.6 °F 24.8 °F 56% 30.04 in 10.0 mi WNW 8.1 mph - N/A   Overcast